Time,TemperatureF,DewpointF,PressureIn,WindDirection,WindDirectionDegrees,WindSpeedMPH,WindSpeedGustMPH,Humidity,HourlyPrecipIn,Conditions,Clouds,dailyrainin,SoftwareType,DateUTC
2013-04-18 00:02:00,48.0,47.0,-100.00,North,0,14.0,21.0,97,-99.99,,,-99.99,,2013-04-18 05:02:00,
2013-04-18 00:12:00,48.0,47.0,-100.00,North,5,14.0,17.0,97,-99.99,,,-99.99,,2013-04-18 05:12:00,
2013-04-18 00:22:00,48.0,47.0,-100.00,North,5,16.0,19.0,97,-99.99,,,-99.99,,2013-04-18 05:22:00,
2013-04-18 00:33:00,48.0,47.0,-100.00,North,5,16.0,19.0,97,-99.99,,,-99.99,,2013-04-18 05:33:00,
2013-04-18 00:42:00,48.0,48.0,-100.00,North,0,22.0,26.0,97,-99.99,,,-99.99,,2013-04-18 05:42:00,
2013-04-18 00:52:00,49.0,48.0,-100.00,North,0,17.0,23.0,97,-99.99,,,-99.99,,2013-04-18 05:52:00,
2013-04-18 01:02:00,49.0,48.0,-100.00,North,0,17.0,23.0,97,-99.99,,,-99.99,,2013-04-18 06:02:00,
2013-04-18 01:12:00,49.0,48.0,-100.00,North,0,20.0,26.0,97,-99.99,,,-99.99,,2013-04-18 06:12:00,
2013-04-18 01:22:00,50.0,49.0,-100.00,North,0,20.0,24.0,97,-99.99,,,-99.99,,2013-04-18 06:22:00,
2013-04-18 01:32:00,50.0,49.0,-100.00,North,0,20.0,24.0,97,-99.99,,,-99.99,,2013-04-18 06:32:00,
2013-04-18 01:42:00,51.0,50.0,-100.00,North,0,21.0,26.0,97,-99.99,,,-99.99,,2013-04-18 06:42:00,
2013-04-18 01:52:00,52.0,51.0,-100.00,North,0,24.0,32.0,97,-99.99,,,-99.99,,2013-04-18 06:52:00,
2013-04-18 02:02:00,52.0,51.0,-100.00,North,0,24.0,32.0,97,-99.99,,,-99.99,,2013-04-18 07:02:00,
2013-04-18 02:12:00,53.0,52.0,-100.00,North,0,25.0,33.0,97,-99.99,,,-99.99,,2013-04-18 07:12:00,
2013-04-18 02:22:00,53.0,52.0,-100.00,North,0,19.0,26.0,97,-99.99,,,-99.99,,2013-04-18 07:22:00,
2013-04-18 02:32:00,53.0,52.0,-100.00,North,0,19.0,26.0,97,-99.99,,,-99.99,,2013-04-18 07:32:00,
2013-04-18 02:42:00,54.0,53.0,-100.00,North,0,16.0,24.0,97,-99.99,,,-99.99,,2013-04-18 07:42:00,
2013-04-18 02:52:00,54.0,53.0,-100.00,North,0,17.0,20.0,97,-99.99,,,-99.99,,2013-04-18 07:52:00,
2013-04-18 03:02:00,54.0,53.0,-100.00,North,0,17.0,20.0,97,-99.99,,,-99.99,,2013-04-18 08:02:00,
2013-04-18 03:12:00,49.0,48.0,-100.00,North,5,24.0,31.0,97,-99.99,,,-99.99,,2013-04-18 08:12:00,
2013-04-18 03:22:00,47.0,46.0,-100.00,North,5,19.0,26.0,97,-99.99,,,-99.99,,2013-04-18 08:22:00,
2013-04-18 03:32:00,47.0,46.0,-100.00,North,5,19.0,26.0,97,-99.99,,,-99.99,,2013-04-18 08:32:00,
2013-04-18 03:42:00,45.0,44.0,-100.00,North,10,15.0,26.0,97,-99.99,,,-99.99,,2013-04-18 08:42:00,
2013-04-18 03:52:00,46.0,45.0,-100.00,North,0,17.0,23.0,97,-99.99,,,-99.99,,2013-04-18 08:52:00,
2013-04-18 04:02:00,46.0,45.0,-100.00,North,0,17.0,23.0,97,-99.99,,,-99.99,,2013-04-18 09:02:00,
2013-04-18 04:12:00,46.0,46.0,-100.00,North,5,12.0,21.0,97,-99.99,,,-99.99,,2013-04-18 09:12:00,
2013-04-18 04:22:00,47.0,46.0,-100.00,North,5,11.0,19.0,97,-99.99,,,-99.99,,2013-04-18 09:22:00,
2013-04-18 04:33:00,47.0,46.0,-100.00,North,5,11.0,19.0,97,-99.99,,,-99.99,,2013-04-18 09:33:00,
2013-04-18 04:43:00,48.0,47.0,-100.00,North,10,18.0,24.0,97,-99.99,,,-99.99,,2013-04-18 09:43:00,
2013-04-18 04:53:00,48.0,47.0,-100.00,North,0,17.0,23.0,97,-99.99,,,-99.99,,2013-04-18 09:53:00,
2013-04-18 05:03:00,48.0,47.0,-100.00,North,0,17.0,23.0,97,-99.99,,,-99.99,,2013-04-18 10:03:00,
2013-04-18 05:12:00,48.0,47.0,-100.00,North,0,12.0,21.0,97,-99.99,,,-99.99,,2013-04-18 10:12:00,
2013-04-18 05:23:00,49.0,49.0,-100.00,North,0,15.0,28.0,97,-99.99,,,-99.99,,2013-04-18 10:23:00,
2013-04-18 05:32:00,49.0,49.0,-100.00,North,0,15.0,28.0,97,-99.99,,,-99.99,,2013-04-18 10:32:00,
2013-04-18 05:42:00,50.0,49.0,-100.00,North,0,13.0,17.0,97,-99.99,,,-99.99,,2013-04-18 10:42:00,
2013-04-18 05:52:00,50.0,49.0,-100.00,North,0,9.0,12.0,97,-99.99,,,-99.99,,2013-04-18 10:52:00,
2013-04-18 06:02:00,50.0,49.0,-100.00,North,0,9.0,12.0,97,-99.99,,,-99.99,,2013-04-18 11:02:00,
2013-04-18 06:12:00,50.0,49.0,-100.00,North,0,11.0,15.0,97,-99.99,,,-99.99,,2013-04-18 11:12:00,
2013-04-18 06:22:00,50.0,49.0,-100.00,North,0,13.0,18.0,97,-99.99,,,-99.99,,2013-04-18 11:22:00,
2013-04-18 06:32:00,50.0,49.0,-100.00,North,0,13.0,18.0,97,-99.99,,,-99.99,,2013-04-18 11:32:00,
2013-04-18 06:42:00,50.0,49.0,-100.00,North,0,14.0,16.0,97,-99.99,,,-99.99,,2013-04-18 11:42:00,
2013-04-18 06:52:00,49.0,48.0,-100.00,North,0,14.0,17.0,97,-99.99,,,-99.99,,2013-04-18 11:52:00,
2013-04-18 07:02:00,49.0,48.0,-100.00,North,0,14.0,17.0,97,-99.99,,,-99.99,,2013-04-18 12:02:00,
2013-04-18 07:12:00,49.0,48.0,-100.00,North,0,13.0,20.0,97,-99.99,,,-99.99,,2013-04-18 12:12:00,
2013-04-18 07:22:00,50.0,49.0,-100.00,North,0,12.0,15.0,97,-99.99,,,-99.99,,2013-04-18 12:22:00,
2013-04-18 07:32:00,50.0,49.0,-100.00,North,0,12.0,15.0,97,-99.99,,,-99.99,,2013-04-18 12:32:00,
2013-04-18 07:42:00,50.0,49.0,-100.00,North,0,12.0,16.0,97,-99.99,,,-99.99,,2013-04-18 12:42:00,
2013-04-18 07:52:00,50.0,49.0,-100.00,North,0,16.0,20.0,97,-99.99,,,-99.99,,2013-04-18 12:52:00,
2013-04-18 08:02:00,50.0,49.0,-100.00,North,0,16.0,20.0,97,-99.99,,,-99.99,,2013-04-18 13:02:00,
2013-04-18 08:12:00,50.0,49.0,-100.00,North,0,10.0,16.0,97,-99.99,,,-99.99,,2013-04-18 13:12:00,
2013-04-18 08:22:00,50.0,49.0,-100.00,North,0,5.0,11.0,97,-99.99,,,-99.99,,2013-04-18 13:22:00,
2013-04-18 08:32:00,50.0,49.0,-100.00,North,0,5.0,11.0,97,-99.99,,,-99.99,,2013-04-18 13:32:00,
2013-04-18 08:42:00,51.0,50.0,-100.00,North,5,7.0,11.0,97,-99.99,,,-99.99,,2013-04-18 13:42:00,
2013-04-18 08:53:00,50.0,49.0,-100.00,North,5,4.0,7.0,97,-99.99,,,-99.99,,2013-04-18 13:53:00,
2013-04-18 09:02:00,50.0,49.0,-100.00,North,5,4.0,7.0,97,-99.99,,,-99.99,,2013-04-18 14:02:00,
2013-04-18 09:12:00,50.0,49.0,-100.00,North,5,7.0,9.0,97,-99.99,,,-99.99,,2013-04-18 14:12:00,
2013-04-18 09:22:00,50.0,49.0,-100.00,North,5,1.0,6.0,97,-99.99,,,-99.99,,2013-04-18 14:22:00,
2013-04-18 09:32:00,50.0,49.0,-100.00,North,5,1.0,6.0,97,-99.99,,,-99.99,,2013-04-18 14:32:00,
2013-04-18 09:42:00,50.0,49.0,-100.00,North,5,0.0,0.0,97,-99.99,,,-99.99,,2013-04-18 14:42:00,
2013-04-18 09:52:00,50.0,49.0,-100.00,North,0,4.0,5.0,97,-99.99,,,-99.99,,2013-04-18 14:52:00,
2013-04-18 10:02:00,50.0,49.0,-100.00,North,0,4.0,5.0,97,-99.99,,,-99.99,,2013-04-18 15:02:00,
2013-04-18 10:12:00,51.0,50.0,-100.00,North,0,3.0,6.0,97,-99.99,,,-99.99,,2013-04-18 15:12:00,
2013-04-18 10:22:00,51.0,51.0,-100.00,North,5,9.0,18.0,97,-99.99,,,-99.99,,2013-04-18 15:22:00,
2013-04-18 10:33:00,51.0,51.0,-100.00,North,5,9.0,18.0,97,-99.99,,,-99.99,,2013-04-18 15:33:00,
2013-04-18 10:42:00,53.0,52.0,-100.00,North,5,6.0,11.0,97,-99.99,,,-99.99,,2013-04-18 15:42:00,
2013-04-18 10:53:00,53.0,52.0,-100.00,North,5,4.0,8.0,97,-99.99,,,-99.99,,2013-04-18 15:53:00,
2013-04-18 11:03:00,53.0,52.0,-100.00,North,5,4.0,8.0,97,-99.99,,,-99.99,,2013-04-18 16:03:00,
2013-04-18 11:13:00,53.0,52.0,-100.00,North,5,8.0,9.0,97,-99.99,,,-99.99,,2013-04-18 16:13:00,
2013-04-18 11:23:00,53.0,52.0,-100.00,North,5,6.0,9.0,97,-99.99,,,-99.99,,2013-04-18 16:23:00,
2013-04-18 11:33:00,53.0,52.0,-100.00,North,5,6.0,9.0,97,-99.99,,,-99.99,,2013-04-18 16:33:00,
2013-04-18 11:43:00,54.0,53.0,-100.00,North,5,14.0,17.0,97,-99.99,,,-99.99,,2013-04-18 16:43:00,
2013-04-18 11:53:00,54.0,54.0,-100.00,North,5,13.0,18.0,97,-99.99,,,-99.99,,2013-04-18 16:53:00,
2013-04-18 12:03:00,54.0,54.0,-100.00,North,5,13.0,18.0,97,-99.99,,,-99.99,,2013-04-18 17:03:00,
2013-04-18 12:12:00,55.0,54.0,-100.00,North,5,11.0,17.0,97,-99.99,,,-99.99,,2013-04-18 17:12:00,
2013-04-18 12:22:00,55.0,54.0,-100.00,North,5,13.0,17.0,97,-99.99,,,-99.99,,2013-04-18 17:22:00,
2013-04-18 12:33:00,55.0,54.0,-100.00,North,5,13.0,17.0,97,-99.99,,,-99.99,,2013-04-18 17:33:00,
2013-04-18 12:42:00,55.0,55.0,-100.00,North,5,11.0,15.0,97,-99.99,,,-99.99,,2013-04-18 17:42:00,
2013-04-18 12:52:00,56.0,55.0,-100.00,North,5,9.0,16.0,97,-99.99,,,-99.99,,2013-04-18 17:52:00,
2013-04-18 13:02:00,56.0,55.0,-100.00,North,5,9.0,16.0,97,-99.99,,,-99.99,,2013-04-18 18:02:00,
2013-04-18 13:12:00,56.0,55.0,-100.00,North,0,12.0,15.0,97,-99.99,,,-99.99,,2013-04-18 18:12:00,
2013-04-18 13:23:00,57.0,56.0,-100.00,North,5,16.0,19.0,97,-99.99,,,-99.99,,2013-04-18 18:23:00,
2013-04-18 13:32:00,57.0,56.0,-100.00,North,5,16.0,19.0,97,-99.99,,,-99.99,,2013-04-18 18:32:00,
2013-04-18 13:42:00,57.0,57.0,-100.00,North,5,19.0,23.0,97,-99.99,,,-99.99,,2013-04-18 18:42:00,
2013-04-18 13:52:00,59.0,58.0,-100.00,North,5,28.0,36.0,97,-99.99,,,-99.99,,2013-04-18 18:52:00,
2013-04-18 14:02:00,59.0,58.0,-100.00,North,5,28.0,36.0,97,-99.99,,,-99.99,,2013-04-18 19:02:00,
2013-04-18 14:12:00,59.0,58.0,-100.00,North,0,29.0,42.0,97,-99.99,,,-99.99,,2013-04-18 19:12:00,
2013-04-18 14:22:00,59.0,58.0,-100.00,North,0,29.0,37.0,97,-99.99,,,-99.99,,2013-04-18 19:22:00,
2013-04-18 14:30:00,60.0,59.0,-100.00,North,5,27.0,35.0,97,-99.99,,,-99.99,,2013-04-18 19:30:00,
2013-04-18 14:32:00,59.0,58.0,-100.00,North,0,29.0,37.0,97,-99.99,,,-99.99,,2013-04-18 19:32:00,
2013-04-18 14:42:00,59.0,58.0,-100.00,North,0,29.0,39.0,97,-99.99,,,-99.99,,2013-04-18 19:42:00,
2013-04-18 14:53:00,59.0,58.0,-100.00,North,0,30.0,41.0,97,-99.99,,,-99.99,,2013-04-18 19:53:00,
2013-04-18 15:02:00,59.0,58.0,-100.00,North,0,30.0,41.0,97,-99.99,,,-99.99,,2013-04-18 20:02:00,
2013-04-18 15:12:00,60.0,59.0,-100.00,North,5,27.0,35.0,97,-99.99,,,-99.99,,2013-04-18 20:12:00,
2013-04-18 15:22:00,60.0,59.0,-100.00,North,5,27.0,35.0,97,-99.99,,,-99.99,,2013-04-18 20:22:00,
2013-04-18 15:42:00,60.0,59.0,-100.00,North,5,20.0,29.0,96,-99.99,,,-99.99,,2013-04-18 20:42:00,
2013-04-18 15:52:00,60.0,59.0,-100.00,North,5,28.0,34.0,95,-99.99,,,-99.99,,2013-04-18 20:52:00,
2013-04-18 16:02:00,60.0,59.0,-100.00,North,5,28.0,34.0,95,-99.99,,,-99.99,,2013-04-18 21:02:00,
2013-04-18 16:12:00,60.0,59.0,-100.00,North,0,25.0,32.0,95,-99.99,,,-99.99,,2013-04-18 21:12:00,
2013-04-18 16:22:00,60.0,59.0,-100.00,North,0,31.0,34.0,95,-99.99,,,-99.99,,2013-04-18 21:22:00,
2013-04-18 16:32:00,60.0,59.0,-100.00,North,0,31.0,34.0,95,-99.99,,,-99.99,,2013-04-18 21:32:00,
2013-04-18 16:43:00,60.0,59.0,-100.00,North,0,31.0,34.0,95,-99.99,,,-99.99,,2013-04-18 21:43:00,
2013-04-18 16:53:00,60.0,59.0,-100.00,North,5,26.0,32.0,95,-99.99,,,-99.99,,2013-04-18 21:53:00,
2013-04-18 17:02:00,60.0,59.0,-100.00,North,5,26.0,32.0,95,-99.99,,,-99.99,,2013-04-18 22:02:00,
2013-04-18 17:13:00,60.0,58.0,-100.00,North,5,28.0,37.0,95,-99.99,,,-99.99,,2013-04-18 22:13:00,
2013-04-18 17:23:00,60.0,59.0,-100.00,North,5,26.0,32.0,94,-99.99,,,-99.99,,2013-04-18 22:23:00,
2013-04-18 17:32:00,60.0,59.0,-100.00,North,5,26.0,32.0,94,-99.99,,,-99.99,,2013-04-18 22:32:00,
2013-04-18 17:42:00,60.0,58.0,-100.00,North,5,26.0,34.0,94,-99.99,,,-99.99,,2013-04-18 22:42:00,
2013-04-18 17:52:00,60.0,59.0,-100.00,North,5,19.0,34.0,95,-99.99,,,-99.99,,2013-04-18 22:52:00,
2013-04-18 18:04:00,60.0,59.0,-100.00,North,5,19.0,34.0,95,-99.99,,,-99.99,,2013-04-18 23:04:00,
2013-04-18 18:12:00,58.0,57.0,-100.00,North,5,26.0,44.0,95,-99.99,,,-99.99,,2013-04-18 23:12:00,
2013-04-18 18:21:00,55.0,53.0,-100.00,North,5,18.0,32.0,92,-99.99,,,-99.99,,2013-04-18 23:21:00,
2013-04-18 18:32:00,55.0,53.0,-100.00,North,5,18.0,32.0,92,-99.99,,,-99.99,,2013-04-18 23:32:00,
2013-04-18 18:42:00,53.0,51.0,-100.00,North,5,30.0,36.0,92,-99.99,,,-99.99,,2013-04-18 23:42:00,
2013-04-18 18:52:00,51.0,49.0,-100.00,North,5,26.0,34.0,93,-99.99,,,-99.99,,2013-04-18 23:52:00,
2013-04-18 19:01:00,51.0,49.0,-100.00,North,5,26.0,34.0,93,-99.99,,,-99.99,,2013-04-19 00:01:00,
2013-04-18 19:12:00,50.0,48.0,-100.00,North,5,24.0,40.0,92,-99.99,,,-99.99,,2013-04-19 00:12:00,
2013-04-18 19:22:00,48.0,46.0,-100.00,North,5,32.0,40.0,95,-99.99,,,-99.99,,2013-04-19 00:22:00,
2013-04-18 19:32:00,48.0,46.0,-100.00,North,5,32.0,40.0,95,-99.99,,,-99.99,,2013-04-19 00:32:00,
2013-04-18 19:42:00,48.0,46.0,-100.00,North,5,32.0,40.0,95,-99.99,,,-99.99,,2013-04-19 00:42:00,
2013-04-18 19:52:00,46.0,44.0,-100.00,North,5,30.0,40.0,93,-99.99,,,-99.99,,2013-04-19 00:52:00,
2013-04-18 20:01:00,46.0,44.0,-100.00,North,5,30.0,40.0,93,-99.99,,,-99.99,,2013-04-19 01:01:00,
2013-04-18 20:11:00,45.0,43.0,-100.00,North,5,27.0,41.0,92,-99.99,,,-99.99,,2013-04-19 01:11:00,
2013-04-18 20:21:00,45.0,42.0,-100.00,North,5,28.0,40.0,91,-99.99,,,-99.99,,2013-04-19 01:21:00,
2013-04-18 20:32:00,45.0,42.0,-100.00,North,5,28.0,40.0,91,-99.99,,,-99.99,,2013-04-19 01:32:00,
2013-04-18 20:42:00,44.0,40.0,-100.00,North,5,33.0,43.0,86,-99.99,,,-99.99,,2013-04-19 01:42:00,
2013-04-18 20:52:00,44.0,40.0,-100.00,North,5,32.0,43.0,84,-99.99,,,-99.99,,2013-04-19 01:52:00,
2013-04-18 21:02:00,44.0,40.0,-100.00,North,5,32.0,43.0,84,-99.99,,,-99.99,,2013-04-19 02:02:00,
2013-04-18 21:11:00,43.0,38.0,-100.00,North,5,26.0,39.0,83,-99.99,,,-99.99,,2013-04-19 02:11:00,
2013-04-18 21:21:00,43.0,37.0,-100.00,North,5,21.0,34.0,79,-99.99,,,-99.99,,2013-04-19 02:21:00,
2013-04-18 21:32:00,43.0,37.0,-100.00,North,5,21.0,34.0,79,-99.99,,,-99.99,,2013-04-19 02:32:00,
2013-04-18 21:42:00,43.0,36.0,-100.00,North,5,29.0,39.0,78,-99.99,,,-99.99,,2013-04-19 02:42:00,
2013-04-18 21:52:00,42.0,36.0,-100.00,North,5,26.0,36.0,77,-99.99,,,-99.99,,2013-04-19 02:52:00,
2013-04-18 22:01:00,42.0,36.0,-100.00,North,5,26.0,36.0,77,-99.99,,,-99.99,,2013-04-19 03:01:00,
2013-04-18 22:11:00,42.0,35.0,-100.00,North,5,27.0,39.0,78,-99.99,,,-99.99,,2013-04-19 03:11:00,
2013-04-18 22:21:00,41.0,35.0,-100.00,North,5,26.0,38.0,79,-99.99,,,-99.99,,2013-04-19 03:21:00,
2013-04-18 22:33:00,41.0,35.0,-100.00,North,5,26.0,38.0,79,-99.99,,,-99.99,,2013-04-19 03:33:00,
2013-04-18 22:43:00,41.0,35.0,-100.00,North,0,29.0,39.0,79,-99.99,,,-99.99,,2013-04-19 03:43:00,
2013-04-18 22:53:00,40.0,34.0,-100.00,North,0,26.0,36.0,79,-99.99,,,-99.99,,2013-04-19 03:53:00,
2013-04-18 23:03:00,40.0,34.0,-100.00,North,0,26.0,36.0,79,-99.99,,,-99.99,,2013-04-19 04:03:00,
2013-04-18 23:13:00,39.0,35.0,-100.00,North,0,30.0,39.0,84,-99.99,,,-99.99,,2013-04-19 04:13:00,
2013-04-18 23:23:00,38.0,32.0,-100.00,North,5,31.0,42.0,78,-99.99,,,-99.99,,2013-04-19 04:23:00,
2013-04-18 23:33:00,38.0,32.0,-100.00,North,5,31.0,42.0,78,-99.99,,,-99.99,,2013-04-19 04:33:00,
2013-04-18 23:43:00,38.0,32.0,-100.00,North,5,27.0,37.0,81,-99.99,,,-99.99,,2013-04-19 04:43:00,
2013-04-18 23:52:00,37.0,32.0,-100.00,North,5,28.0,36.0,82,-99.99,,,-99.99,,2013-04-19 04:52:00,